| time (UTC) | temp C | wind direction | speed KPH | gust KPH | rain 1hr cm | rain 24hr cm | rain mn cm | humidity % | barometer mb |
| 20260906162615 | 24 | 163 | 6.4 | 16.1 | 0.00 | 0.00 | 0.00 | 63 | 1019.7 |
| 20260906162115 | 24 | 166 | 4.8 | 14.5 | 0.00 | 0.00 | 0.00 | 64 | 1019.6 |
| 20260906161615 | 24 | 5 | 4.8 | 9.7 | 0.00 | 0.00 | 0.00 | 65 | 1019.6 |
| 20260906161115 | 24 | 103 | 6.4 | 12.9 | 0.00 | 0.00 | 0.00 | 65 | 1019.6 |
| 20260906160615 | 24 | 105 | 4.8 | 16.1 | 0.00 | 0.00 | 0.00 | 67 | 1019.6 |
| 20260906160115 | 24 | 144 | 4.8 | 9.7 | 0.00 | 0.00 | 0.00 | 66 | 1019.7 |
| 20260906155615 | 24 | 216 | 4.8 | 4.8 | 0.00 | 0.00 | 0.00 | 67 | 1019.8 |
| 20260906155115 | 24 | 255 | 4.8 | 12.9 | 0.00 | 0.00 | 0.00 | 66 | 1019.8 |
| 20260906154615 | 23 | 217 | 4.8 | 9.7 | 0.00 | 0.00 | 0.00 | 65 | 1019.8 |
| 20260906154115 | 23 | 110 | 4.8 | 11.3 | 0.00 | 0.00 | 0.00 | 67 | 1019.8 |
| 20260906153615 | 23 | 165 | 4.8 | 9.7 | 0.00 | 0.00 | 0.00 | 66 | 1019.9 |
| 20260906153115 | 23 | 92 | 4.8 | 11.3 | 0.00 | 0.00 | 0.00 | 70 | 1020.0 |
| 20260906152615 | 23 | 120 | 4.8 | 11.3 | 0.00 | 0.00 | 0.00 | 70 | 1020.1 |
| 20260906152115 | 23 | 128 | 6.4 | 11.3 | 0.00 | 0.00 | 0.00 | 69 | 1020.0 |
| 20260906151615 | 23 | 124 | 4.8 | 12.9 | 0.00 | 0.00 | 0.00 | 71 | 1019.9 |
| 20260906151115 | 23 | 119 | 3.2 | 12.9 | 0.00 | 0.00 | 0.00 | 73 | 1020.2 |
| 20260906150615 | 23 | 142 | 4.8 | 9.7 | 0.00 | 0.00 | 0.00 | 74 | 1020.3 |
| 20260906150115 | 22 | 130 | 4.8 | 11.3 | 0.00 | 0.00 | 0.00 | 73 | 1020.3 |
| 20260906145615 | 22 | 198 | 4.8 | 9.7 | 0.00 | 0.00 | 0.00 | 74 | 1020.2 |
| 20260906145115 | 22 | 135 | 4.8 | 14.5 | 0.00 | 0.00 | 0.00 | 74 | 1020.1 |
| 20260906144615 | 22 | 111 | 3.2 | 14.5 | 0.00 | 0.00 | 0.00 | 73 | 1020.2 |
| 20260906144115 | 22 | 172 | 3.2 | 6.4 | 0.00 | 0.00 | 0.00 | 76 | 1020.1 |
| 20260906143616 | 22 | 145 | 3.2 | 8.0 | 0.00 | 0.00 | 0.00 | 77 | 1020.0 |
| 20260906143115 | 22 | 146 | 3.2 | 9.7 | 0.00 | 0.00 | 0.00 | 78 | 1020.1 |
| 20260906142615 | 22 | 185 | 4.8 | 8.0 | 0.00 | 0.00 | 0.00 | 81 | 1020.0 |
| 20260906142116 | 21 | 138 | 6.4 | 11.3 | 0.00 | 0.00 | 0.00 | 82 | 1019.8 |
| 20260906141615 | 21 | 120 | 6.4 | 14.5 | 0.00 | 0.00 | 0.00 | 83 | 1019.7 |
| 20260906141116 | 21 | 112 | 6.4 | 12.9 | 0.00 | 0.00 | 0.00 | 85 | 1019.6 |
| 20260906140616 | 21 | 102 | 4.8 | 12.9 | 0.00 | 0.00 | 0.00 | 87 | 1019.7 |
| 20260906140116 | 20 | 121 | 4.8 | 9.7 | 0.00 | 0.00 | 0.00 | 89 | 1019.7 |
| 20260906135616 | 20 | 110 | 4.8 | 9.7 | 0.00 | 0.00 | 0.00 | 91 | 1019.7 |
| 20260906135116 | 20 | 123 | 4.8 | 11.3 | 0.00 | 0.00 | 0.00 | 92 | 1019.8 |
| 20260906134616 | 20 | 121 | 3.2 | 8.0 | 0.00 | 0.00 | 0.00 | 94 | 1019.8 |
| 20260906134116 | 20 | 101 | 3.2 | 4.8 | 0.00 | 0.00 | 0.00 | 95 | 1019.8 |
| 20260906133616 | 19 | 90 | 3.2 | 6.4 | 0.00 | 0.00 | 0.00 | 96 | 1020.0 |
| 20260906133116 | 19 | 101 | 1.6 | 4.8 | 0.00 | 0.00 | 0.00 | 97 | 1020.0 |
| 20260906132616 | 18 | 144 | 1.6 | 4.8 | 0.00 | 0.00 | 0.00 | 98 | 1019.9 |
| 20260906132116 | 18 | 145 | 1.6 | 3.2 | 0.00 | 0.00 | 0.00 | 98 | 1020.0 |
| 20260906131616 | 17 | 96 | 1.6 | 3.2 | 0.00 | 0.00 | 0.00 | 98 | 1020.0 |
| 20260906131116 | 17 | 118 | 0.0 | 3.2 | 0.00 | 0.00 | 0.00 | 98 | 1020.0 |
| 20260906130616 | 16 | 116 | 0.0 | 0.0 | 0.00 | 0.00 | 0.00 | 98 | 1019.9 |
| 20260906130116 | 16 | 5 | 0.0 | 0.0 | 0.00 | 0.00 | 0.00 | 98 | 1020.0 |
| 20260906125616 | 16 | 5 | 0.0 | 0.0 | 0.00 | 0.00 | 0.00 | 98 | 1020.2 |
| 20260906125116 | 15 | 5 | 0.0 | 0.0 | 0.00 | 0.00 | 0.00 | 98 | 1020.1 |
| 20260906124616 | 15 | 5 | 0.0 | 0.0 | 0.00 | 0.00 | 0.00 | 98 | 1020.1 |
| 20260906124116 | 15 | 5 | 0.0 | 0.0 | 0.00 | 0.00 | 0.00 | 98 | 1020.0 |
| 20260906123616 | 14 | 5 | 0.0 | 0.0 | 0.00 | 0.00 | 0.00 | 98 | 1020.1 |
| 20260906123116 | 14 | 5 | 0.0 | 0.0 | 0.00 | 0.00 | 0.00 | 97 | 1020.1 |
| 20260906122616 | 14 | 5 | 0.0 | 0.0 | 0.00 | 0.00 | 0.00 | 97 | 1020.0 |
| 20260906122116 | 13 | 5 | 0.0 | 0.0 | 0.00 | 0.00 | 0.00 | 97 | 1019.9 |
| 20260906121616 | 13 | 5 | 0.0 | 0.0 | 0.00 | 0.00 | 0.00 | 97 | 1019.9 |
| 20260906121116 | 13 | 5 | 0.0 | 0.0 | 0.00 | 0.00 | 0.00 | 97 | 1019.8 |
| 20260906120616 | 13 | 5 | 0.0 | 0.0 | 0.00 | 0.00 | 0.00 | 97 | 1019.7 |
| 20260906120116 | 13 | 5 | 0.0 | 0.0 | 0.00 | 0.00 | 0.00 | 97 | 1019.6 |
| 20260906115616 | 13 | 5 | 0.0 | 0.0 | 0.00 | 0.00 | 0.00 | 96 | 1019.6 |
| 20260906115116 | 13 | 5 | 0.0 | 0.0 | 0.00 | 0.00 | 0.00 | 96 | 1019.3 |
| 20260906114616 | 13 | 5 | 0.0 | 0.0 | 0.00 | 0.00 | 0.00 | 97 | 1019.2 |
| 20260906114116 | 13 | 5 | 0.0 | 0.0 | 0.00 | 0.00 | 0.00 | 96 | 1019.2 |
| 20260906113616 | 13 | 5 | 0.0 | 0.0 | 0.00 | 0.00 | 0.00 | 97 | 1019.2 |
| 20260906113116 | 13 | 5 | 0.0 | 0.0 | 0.00 | 0.00 | 0.00 | 97 | 1019.1 |
| 20260906112616 | 13 | 5 | 0.0 | 0.0 | 0.00 | 0.00 | 0.00 | 97 | 1019.0 |
| 20260906112116 | 13 | 5 | 0.0 | 0.0 | 0.00 | 0.00 | 0.00 | 96 | 1019.0 |
| 20260906111616 | 13 | 5 | 0.0 | 0.0 | 0.00 | 0.00 | 0.00 | 96 | 1019.0 |
| 20260906111116 | 13 | 5 | 0.0 | 0.0 | 0.00 | 0.00 | 0.00 | 96 | 1019.0 |
| 20260906110616 | 14 | 5 | 0.0 | 0.0 | 0.00 | 0.00 | 0.00 | 96 | 1019.0 |
| 20260906110116 | 14 | 5 | 0.0 | 0.0 | 0.00 | 0.00 | 0.00 | 96 | 1018.9 |
| 20260906105616 | 14 | 5 | 0.0 | 0.0 | 0.00 | 0.00 | 0.00 | 96 | 1018.8 |
| 20260906105116 | 14 | 5 | 0.0 | 0.0 | 0.00 | 0.00 | 0.00 | 96 | 1018.8 |
| 20260906104616 | 14 | 5 | 0.0 | 0.0 | 0.00 | 0.00 | 0.00 | 96 | 1018.9 |
| 20260906104116 | 14 | 5 | 0.0 | 0.0 | 0.00 | 0.00 | 0.00 | 96 | 1019.0 |
| 20260906103616 | 14 | 5 | 0.0 | 0.0 | 0.00 | 0.00 | 0.00 | 96 | 1018.9 |
| 20260906103116 | 14 | 5 | 0.0 | 0.0 | 0.00 | 0.00 | 0.00 | 96 | 1018.8 |
| 20260906102616 | 14 | 5 | 0.0 | 0.0 | 0.00 | 0.00 | 0.00 | 96 | 1018.9 |
| 20260906102116 | 14 | 5 | 0.0 | 0.0 | 0.00 | 0.00 | 0.00 | 95 | 1018.9 |
| 20260906101616 | 15 | 5 | 0.0 | 0.0 | 0.00 | 0.00 | 0.00 | 96 | 1018.9 |
| 20260906101116 | 15 | 5 | 0.0 | 0.0 | 0.00 | 0.00 | 0.00 | 96 | 1018.8 |
| 20260906100616 | 15 | 5 | 0.0 | 0.0 | 0.00 | 0.00 | 0.00 | 95 | 1018.7 |
| 20260906100116 | 15 | 5 | 0.0 | 0.0 | 0.00 | 0.00 | 0.00 | 95 | 1018.8 |
| 20260906095616 | 15 | 5 | 0.0 | 0.0 | 0.00 | 0.00 | 0.00 | 95 | 1018.9 |
| 20260906095116 | 15 | 5 | 0.0 | 0.0 | 0.00 | 0.00 | 0.00 | 95 | 1018.8 |
| 20260906094616 | 15 | 5 | 0.0 | 0.0 | 0.00 | 0.00 | 0.00 | 95 | 1018.7 |
| 20260906094116 | 15 | 5 | 0.0 | 0.0 | 0.00 | 0.00 | 0.00 | 95 | 1018.8 |
| 20260906093616 | 15 | 5 | 0.0 | 0.0 | 0.00 | 0.00 | 0.00 | 95 | 1018.9 |
| 20260906093116 | 15 | 5 | 0.0 | 0.0 | 0.00 | 0.00 | 0.00 | 95 | 1018.9 |
| 20260906092616 | 15 | 5 | 0.0 | 0.0 | 0.00 | 0.00 | 0.00 | 95 | 1018.8 |
| 20260906092116 | 15 | 5 | 0.0 | 0.0 | 0.00 | 0.00 | 0.00 | 95 | 1018.7 |
| 20260906091616 | 15 | 5 | 0.0 | 0.0 | 0.00 | 0.00 | 0.00 | 95 | 1018.6 |
| 20260906091116 | 15 | 5 | 0.0 | 0.0 | 0.00 | 0.00 | 0.00 | 95 | 1018.6 |
| 20260906090616 | 15 | 5 | 0.0 | 0.0 | 0.00 | 0.00 | 0.00 | 95 | 1018.7 |
| 20260906090116 | 15 | 5 | 0.0 | 0.0 | 0.00 | 0.00 | 0.00 | 95 | 1018.7 |
| 20260906085616 | 15 | 5 | 0.0 | 0.0 | 0.00 | 0.00 | 0.00 | 95 | 1018.7 |
| 20260906085116 | 15 | 5 | 0.0 | 0.0 | 0.00 | 0.00 | 0.00 | 95 | 1018.6 |
| 20260906084616 | 15 | 5 | 0.0 | 0.0 | 0.00 | 0.00 | 0.00 | 95 | 1018.6 |
| 20260906084116 | 16 | 5 | 0.0 | 0.0 | 0.00 | 0.00 | 0.00 | 95 | 1018.8 |
| 20260906083616 | 16 | 5 | 0.0 | 0.0 | 0.00 | 0.00 | 0.00 | 94 | 1018.8 |
| 20260906083116 | 16 | 5 | 0.0 | 0.0 | 0.00 | 0.00 | 0.00 | 94 | 1018.7 |
| 20260906082616 | 16 | 5 | 0.0 | 0.0 | 0.00 | 0.00 | 0.00 | 94 | 1018.7 |
| 20260906082116 | 16 | 5 | 0.0 | 0.0 | 0.00 | 0.00 | 0.00 | 94 | 1018.6 |
| 20260906081616 | 16 | 5 | 0.0 | 0.0 | 0.00 | 0.00 | 0.00 | 94 | 1018.5 |
| 20260906081116 | 16 | 5 | 0.0 | 0.0 | 0.00 | 0.00 | 0.00 | 94 | 1018.4 |
| 20260906080616 | 16 | 5 | 0.0 | 0.0 | 0.00 | 0.00 | 0.00 | 94 | 1018.4 |
| 20260906080116 | 16 | 5 | 0.0 | 0.0 | 0.00 | 0.00 | 0.00 | 93 | 1018.4 |
| 20260906075616 | 16 | 5 | 0.0 | 0.0 | 0.00 | 0.00 | 0.00 | 93 | 1018.2 |
| 20260906075116 | 16 | 5 | 0.0 | 0.0 | 0.00 | 0.00 | 0.00 | 93 | 1018.3 |
| 20260906074616 | 16 | 5 | 0.0 | 0.0 | 0.00 | 0.00 | 0.00 | 93 | 1018.4 |
| 20260906074116 | 16 | 5 | 1.6 | 1.6 | 0.00 | 0.00 | 0.00 | 93 | 1018.4 |
| 20260906073616 | 16 | 5 | 0.0 | 3.2 | 0.00 | 0.00 | 0.00 | 93 | 1018.4 |
| 20260906073117 | 16 | 80 | 0.0 | 0.0 | 0.00 | 0.00 | 0.00 | 93 | 1018.3 |
| 20260906072616 | 16 | 80 | 0.0 | 0.0 | 0.00 | 0.00 | 0.00 | 93 | 1018.3 |
| 20260906072117 | 16 | 80 | 0.0 | 0.0 | 0.00 | 0.00 | 0.00 | 92 | 1018.5 |
| 20260906071616 | 16 | 80 | 0.0 | 0.0 | 0.00 | 0.00 | 0.00 | 93 | 1018.5 |
| 20260906071117 | 17 | 80 | 0.0 | 0.0 | 0.00 | 0.00 | 0.00 | 93 | 1018.5 |
| 20260906070617 | 16 | 80 | 0.0 | 0.0 | 0.00 | 0.00 | 0.00 | 93 | 1018.4 |
| 20260906070117 | 16 | 344 | 0.0 | 0.0 | 0.00 | 0.00 | 0.00 | 93 | 1018.3 |
| 20260906065617 | 16 | 344 | 0.0 | 0.0 | 0.00 | 0.00 | 0.00 | 92 | 1018.3 |
| 20260906065117 | 16 | 344 | 0.0 | 0.0 | 0.00 | 0.00 | 0.00 | 92 | 1018.4 |
| 20260906064617 | 16 | 343 | 0.0 | 0.0 | 0.00 | 0.00 | 0.00 | 92 | 1018.5 |
| 20260906064117 | 16 | 343 | 0.0 | 0.0 | 0.00 | 0.00 | 0.00 | 92 | 1018.6 |
| 20260906063617 | 16 | 343 | 0.0 | 0.0 | 0.00 | 0.00 | 0.00 | 92 | 1018.6 |
| 20260906063117 | 16 | 343 | 0.0 | 0.0 | 0.00 | 0.00 | 0.00 | 92 | 1018.7 |
| 20260906062617 | 16 | 343 | 0.0 | 0.0 | 0.00 | 0.00 | 0.00 | 92 | 1018.7 |
| 20260906062117 | 16 | 343 | 0.0 | 0.0 | 0.00 | 0.00 | 0.00 | 92 | 1018.8 |
| 20260906061617 | 16 | 343 | 0.0 | 0.0 | 0.00 | 0.00 | 0.00 | 92 | 1018.7 |
| 20260906061117 | 16 | 343 | 0.0 | 0.0 | 0.00 | 0.00 | 0.00 | 92 | 1018.6 |
| 20260906060617 | 16 | 343 | 0.0 | 0.0 | 0.00 | 0.00 | 0.00 | 92 | 1018.5 |
| 20260906060117 | 16 | 343 | 0.0 | 0.0 | 0.00 | 0.00 | 0.00 | 92 | 1018.5 |
| 20260906055617 | 16 | 343 | 0.0 | 0.0 | 0.00 | 0.00 | 0.00 | 92 | 1018.4 |
| 20260906055117 | 17 | 343 | 0.0 | 0.0 | 0.00 | 0.00 | 0.00 | 91 | 1018.5 |
| 20260906054617 | 17 | 343 | 0.0 | 0.0 | 0.00 | 0.00 | 0.00 | 91 | 1018.6 |
| 20260906054117 | 17 | 343 | 0.0 | 0.0 | 0.00 | 0.00 | 0.00 | 91 | 1018.4 |
| 20260906053617 | 17 | 343 | 1.6 | 0.0 | 0.00 | 0.00 | 0.00 | 91 | 1018.5 |
| 20260906053117 | 17 | 343 | 1.6 | 4.8 | 0.00 | 0.00 | 0.00 | 91 | 1018.5 |
| 20260906052617 | 17 | 343 | 0.0 | 4.8 | 0.00 | 0.00 | 0.00 | 91 | 1018.4 |
| 20260906052117 | 17 | 51 | 0.0 | 0.0 | 0.00 | 0.00 | 0.00 | 90 | 1018.0 |
| 20260906051617 | 17 | 51 | 0.0 | 0.0 | 0.00 | 0.00 | 0.00 | 90 | 1018.1 |
| 20260906051117 | 17 | 51 | 0.0 | 0.0 | 0.00 | 0.00 | 0.00 | 90 | 1018.2 |
| 20260906050617 | 17 | 51 | 0.0 | 0.0 | 0.00 | 0.00 | 0.00 | 90 | 1018.2 |
| 20260906050117 | 17 | 51 | 0.0 | 0.0 | 0.00 | 0.00 | 0.00 | 90 | 1018.3 |
| 20260906045617 | 17 | 51 | 0.0 | 0.0 | 0.00 | 0.00 | 0.00 | 90 | 1018.3 |
| 20260906045117 | 17 | 5 | 0.0 | 0.0 | 0.00 | 0.00 | 0.00 | 89 | 1018.4 |
| 20260906044617 | 17 | 61 | 0.0 | 0.0 | 0.00 | 0.00 | 0.00 | 89 | 1018.5 |
| 20260906044117 | 17 | 61 | 0.0 | 1.6 | 0.00 | 0.00 | 0.00 | 89 | 1018.4 |
| 20260906043617 | 17 | 91 | 1.6 | 3.2 | 0.00 | 0.00 | 0.00 | 88 | 1018.3 |
| 20260906043117 | 17 | 345 | 1.6 | 6.4 | 0.00 | 0.00 | 0.00 | 88 | 1018.3 |
| 20260906042617 | 17 | 325 | 0.0 | 0.0 | 0.00 | 0.00 | 0.00 | 88 | 1018.2 |
| 20260906042117 | 17 | 269 | 0.0 | 0.0 | 0.00 | 0.00 | 0.00 | 87 | 1018.0 |
| 20260906041617 | 17 | 269 | 0.0 | 0.0 | 0.00 | 0.00 | 0.00 | 87 | 1018.2 |
| 20260906041117 | 18 | 269 | 0.0 | 0.0 | 0.00 | 0.00 | 0.00 | 87 | 1018.4 |
| 20260906040617 | 18 | 269 | 0.0 | 0.0 | 0.00 | 0.00 | 0.00 | 86 | 1018.3 |
| 20260906040117 | 18 | 269 | 0.0 | 0.0 | 0.00 | 0.00 | 0.00 | 86 | 1018.3 |
| 20260906035617 | 18 | 269 | 0.0 | 0.0 | 0.00 | 0.00 | 0.00 | 86 | 1018.3 |
| 20260906035117 | 18 | 269 | 0.0 | 0.0 | 0.00 | 0.00 | 0.00 | 85 | 1018.3 |
| 20260906034617 | 18 | 281 | 0.0 | 0.0 | 0.00 | 0.00 | 0.00 | 85 | 1018.3 |
| 20260906034117 | 18 | 329 | 0.0 | 0.0 | 0.00 | 0.00 | 0.00 | 84 | 1018.2 |
| 20260906033617 | 18 | 277 | 0.0 | 1.6 | 0.00 | 0.00 | 0.00 | 85 | 1018.1 |
| 20260906033117 | 18 | 5 | 1.6 | 3.2 | 0.00 | 0.00 | 0.00 | 84 | 1017.9 |
| 20260906032617 | 18 | 5 | 1.6 | 4.8 | 0.00 | 0.00 | 0.00 | 84 | 1017.7 |
| 20260906032117 | 18 | 67 | 1.6 | 4.8 | 0.00 | 0.00 | 0.00 | 84 | 1017.7 |
| 20260906031617 | 18 | 34 | 3.2 | 4.8 | 0.00 | 0.00 | 0.00 | 84 | 1017.7 |
| 20260906031117 | 18 | 65 | 1.6 | 6.4 | 0.00 | 0.00 | 0.00 | 85 | 1017.5 |
| 20260906030617 | 18 | 20 | 3.2 | 4.8 | 0.00 | 0.00 | 0.00 | 85 | 1017.4 |
| 20260906030117 | 18 | 22 | 3.2 | 8.0 | 0.00 | 0.00 | 0.00 | 85 | 1017.4 |
| 20260906025617 | 18 | 5 | 4.8 | 8.0 | 0.00 | 0.00 | 0.00 | 85 | 1017.4 |
| 20260906025117 | 18 | 5 | 3.2 | 8.0 | 0.00 | 0.00 | 0.00 | 85 | 1017.3 |
| 20260906024617 | 18 | 36 | 3.2 | 8.0 | 0.00 | 0.00 | 0.00 | 86 | 1017.1 |
| 20260906024117 | 18 | 37 | 3.2 | 9.7 | 0.00 | 0.00 | 0.00 | 86 | 1017.1 |
| 20260906023617 | 18 | 5 | 4.8 | 8.0 | 0.00 | 0.00 | 0.00 | 85 | 1017.1 |
| 20260906023117 | 18 | 34 | 4.8 | 11.3 | 0.00 | 0.00 | 0.00 | 86 | 1017.0 |
| 20260906022617 | 18 | 71 | 4.8 | 11.3 | 0.00 | 0.00 | 0.00 | 86 | 1016.9 |
| 20260906022117 | 18 | 73 | 3.2 | 6.4 | 0.00 | 0.00 | 0.00 | 86 | 1016.9 |
| 20260906021617 | 18 | 57 | 4.8 | 6.4 | 0.00 | 0.00 | 0.00 | 87 | 1016.9 |
| 20260906021117 | 18 | 71 | 3.2 | 8.0 | 0.00 | 0.00 | 0.00 | 87 | 1016.8 |
| 20260906020617 | 18 | 49 | 3.2 | 8.0 | 0.00 | 0.00 | 0.00 | 87 | 1016.7 |
| 20260906020117 | 18 | 64 | 3.2 | 6.4 | 0.00 | 0.00 | 0.00 | 87 | 1016.7 |
| 20260906015617 | 18 | 23 | 3.2 | 9.7 | 0.00 | 0.00 | 0.00 | 87 | 1016.7 |
| 20260906015117 | 18 | 38 | 3.2 | 6.4 | 0.00 | 0.00 | 0.00 | 86 | 1016.7 |
| 20260906014617 | 18 | 77 | 4.8 | 11.3 | 0.00 | 0.00 | 0.00 | 86 | 1016.7 |
| 20260906014117 | 18 | 88 | 4.8 | 6.4 | 0.00 | 0.00 | 0.00 | 86 | 1016.7 |
| 20260906013617 | 18 | 18 | 4.8 | 11.3 | 0.00 | 0.00 | 0.00 | 86 | 1016.6 |
| 20260906013117 | 19 | 85 | 3.2 | 8.0 | 0.00 | 0.00 | 0.00 | 86 | 1016.6 |
| 20260906012617 | 19 | 49 | 3.2 | 8.0 | 0.00 | 0.00 | 0.00 | 86 | 1016.5 |
| 20260906012117 | 19 | 70 | 3.2 | 6.4 | 0.00 | 0.00 | 0.00 | 85 | 1016.6 |
| 20260906011617 | 19 | 22 | 3.2 | 6.4 | 0.00 | 0.00 | 0.00 | 85 | 1016.6 |
| 20260906011117 | 19 | 11 | 4.8 | 6.4 | 0.00 | 0.00 | 0.00 | 85 | 1016.6 |
| 20260906010617 | 20 | 58 | 4.8 | 11.3 | 0.00 | 0.00 | 0.00 | 85 | 1016.6 |
| 20260906010117 | 20 | 24 | 4.8 | 9.7 | 0.00 | 0.00 | 0.00 | 85 | 1016.6 |
| 20260906005617 | 20 | 18 | 4.8 | 11.3 | 0.00 | 0.00 | 0.00 | 85 | 1016.6 |
| 20260906005117 | 20 | 16 | 4.8 | 6.4 | 0.00 | 0.00 | 0.00 | 84 | 1016.6 |
| 20260906004617 | 20 | 36 | 4.8 | 11.3 | 0.00 | 0.00 | 0.00 | 85 | 1016.7 |
| 20260906004117 | 20 | 5 | 4.8 | 8.0 | 0.00 | 0.00 | 0.00 | 85 | 1016.7 |
| 20260906003617 | 20 | 43 | 4.8 | 8.0 | 0.00 | 0.00 | 0.00 | 85 | 1016.7 |
| 20260906003117 | 21 | 101 | 4.8 | 12.9 | 0.00 | 0.00 | 0.00 | 85 | 1016.6 |
| 20260906002617 | 21 | 39 | 4.8 | 9.7 | 0.00 | 0.00 | 0.00 | 84 | 1016.6 |
| 20260906002117 | 21 | 24 | 4.8 | 11.3 | 0.00 | 0.00 | 0.00 | 84 | 1016.7 |
| 20260906001617 | 21 | 344 | 4.8 | 9.7 | 0.00 | 0.00 | 0.00 | 83 | 1016.6 |
| 20260906001118 | 21 | 27 | 6.4 | 16.1 | 0.00 | 0.00 | 0.00 | 82 | 1016.5 |
| 20260906000617 | 22 | 30 | 6.4 | 14.5 | 0.00 | 0.00 | 0.00 | 82 | 1016.5 |
| 20260906000118 | 22 | 79 | 6.4 | 12.9 | 0.00 | 0.00 | 0.00 | 82 | 1016.6 |
| 20260905235618 | 22 | 346 | 8.0 | 12.9 | 0.00 | 0.00 | 0.00 | 81 | 1016.6 |
| 20260905235118 | 22 | 14 | 6.4 | 14.5 | 0.00 | 0.00 | 0.00 | 80 | 1016.6 |
| 20260905234618 | 22 | 46 | 4.8 | 9.7 | 0.00 | 0.00 | 0.00 | 80 | 1016.6 |
| 20260905234118 | 22 | 5 | 4.8 | 8.0 | 0.00 | 0.00 | 0.00 | 80 | 1016.6 |
| 20260905233618 | 22 | 319 | 3.2 | 11.3 | 0.00 | 0.00 | 0.00 | 79 | 1016.5 |
| 20260905233118 | 23 | 355 | 1.6 | 4.8 | 0.00 | 0.00 | 0.00 | 79 | 1016.4 |
| 20260905232618 | 23 | 5 | 3.2 | 6.4 | 0.00 | 0.00 | 0.00 | 78 | 1016.5 |
| 20260905232118 | 23 | 328 | 3.2 | 8.0 | 0.00 | 0.00 | 0.00 | 78 | 1016.6 |
| 20260905231618 | 23 | 290 | 3.2 | 9.7 | 0.00 | 0.00 | 0.00 | 78 | 1016.5 |
| 20260905231118 | 23 | 337 | 3.2 | 8.0 | 0.00 | 0.00 | 0.00 | 78 | 1016.5 |
| 20260905230618 | 23 | 322 | 3.2 | 9.7 | 0.00 | 0.00 | 0.00 | 78 | 1016.6 |
| 20260905230118 | 23 | 275 | 3.2 | 8.0 | 0.00 | 0.00 | 0.00 | 77 | 1016.6 |
| 20260905225618 | 23 | 303 | 3.2 | 8.0 | 0.00 | 0.00 | 0.00 | 77 | 1016.6 |
| 20260905225118 | 23 | 327 | 3.2 | 9.7 | 0.00 | 0.00 | 0.00 | 77 | 1016.7 |
| 20260905224618 | 23 | 320 | 3.2 | 6.4 | 0.00 | 0.00 | 0.00 | 77 | 1016.6 |
| 20260905224118 | 23 | 269 | 1.6 | 8.0 | 0.00 | 0.00 | 0.00 | 76 | 1016.4 |
| 20260905223618 | 23 | 311 | 1.6 | 4.8 | 0.00 | 0.00 | 0.00 | 77 | 1016.4 |
| 20260905223118 | 23 | 338 | 3.2 | 6.4 | 0.00 | 0.00 | 0.00 | 76 | 1016.5 |
| 20260905222618 | 23 | 345 | 1.6 | 6.4 | 0.00 | 0.00 | 0.00 | 75 | 1016.5 |
| 20260905222118 | 24 | 275 | 3.2 | 6.4 | 0.00 | 0.00 | 0.00 | 74 | 1016.5 |
| 20260905221618 | 24 | 313 | 3.2 | 11.3 | 0.00 | 0.00 | 0.00 | 73 | 1016.5 |
| 20260905221118 | 25 | 267 | 3.2 | 6.4 | 0.00 | 0.00 | 0.00 | 72 | 1016.5 |
| 20260905220618 | 25 | 337 | 3.2 | 6.4 | 0.00 | 0.00 | 0.00 | 71 | 1016.5 |
| 20260905220118 | 25 | 355 | 3.2 | 6.4 | 0.00 | 0.00 | 0.00 | 71 | 1016.4 |
| 20260905215618 | 25 | 299 | 3.2 | 6.4 | 0.00 | 0.00 | 0.00 | 71 | 1016.5 |
| 20260905215118 | 25 | 171 | 3.2 | 8.0 | 0.00 | 0.00 | 0.00 | 71 | 1016.6 |
| 20260905214618 | 25 | 297 | 1.6 | 6.4 | 0.00 | 0.00 | 0.00 | 71 | 1016.6 |
| 20260905214118 | 25 | 209 | 1.6 | 6.4 | 0.00 | 0.00 | 0.00 | 72 | 1016.6 |
| 20260905213618 | 25 | 284 | 1.6 | 3.2 | 0.00 | 0.00 | 0.00 | 75 | 1016.7 |
| 20260905213118 | 24 | 163 | 1.6 | 6.4 | 0.00 | 0.00 | 0.00 | 74 | 1016.8 |
| 20260905212618 | 24 | 254 | 1.6 | 4.8 | 0.00 | 0.00 | 0.00 | 74 | 1016.9 |
| 20260905212118 | 25 | 280 | 1.6 | 1.6 | 0.00 | 0.00 | 0.00 | 73 | 1016.8 |
| 20260905211618 | 25 | 121 | 3.2 | 4.8 | 0.00 | 0.00 | 0.00 | 72 | 1016.8 |
| 20260905211118 | 25 | 5 | 3.2 | 6.4 | 0.00 | 0.00 | 0.00 | 72 | 1016.9 |
| 20260905210618 | 25 | 346 | 3.2 | 4.8 | 0.00 | 0.00 | 0.00 | 72 | 1016.9 |
| 20260905210118 | 25 | 206 | 3.2 | 4.8 | 0.00 | 0.00 | 0.00 | 71 | 1017.1 |
| 20260905205618 | 25 | 112 | 3.2 | 6.4 | 0.00 | 0.00 | 0.00 | 70 | 1017.1 |
| 20260905205118 | 25 | 118 | 4.8 | 9.7 | 0.00 | 0.00 | 0.00 | 71 | 1017.2 |
| 20260905204618 | 25 | 351 | 4.8 | 16.1 | 0.00 | 0.00 | 0.00 | 71 | 1017.1 |
| 20260905204118 | 25 | 94 | 4.8 | 6.4 | 0.00 | 0.00 | 0.00 | 73 | 1017.1 |
| 20260905203618 | 24 | 237 | 4.8 | 9.7 | 0.00 | 0.00 | 0.00 | 74 | 1017.1 |
| 20260905203118 | 24 | 121 | 3.2 | 9.7 | 0.00 | 0.00 | 0.00 | 73 | 1017.1 |
| 20260905202618 | 24 | 53 | 3.2 | 6.4 | 0.00 | 0.00 | 0.00 | 73 | 1017.3 |
| 20260905202118 | 24 | 136 | 3.2 | 8.0 | 0.00 | 0.00 | 0.00 | 74 | 1017.4 |
| 20260905201618 | 24 | 149 | 3.2 | 8.0 | 0.00 | 0.00 | 0.00 | 76 | 1017.5 |
| 20260905201118 | 23 | 123 | 4.8 | 9.7 | 0.00 | 0.00 | 0.00 | 76 | 1017.4 |
| 20260905200618 | 23 | 183 | 4.8 | 8.0 | 0.00 | 0.00 | 0.00 | 76 | 1017.6 |
| 20260905200118 | 23 | 194 | 4.8 | 8.0 | 0.00 | 0.00 | 0.00 | 77 | 1017.6 |
| 20260905195618 | 23 | 103 | 4.8 | 11.3 | 0.00 | 0.00 | 0.00 | 78 | 1017.5 |
| 20260905195118 | 23 | 175 | 3.2 | 11.3 | 0.00 | 0.00 | 0.00 | 78 | 1017.5 |
| 20260905194618 | 23 | 213 | 1.6 | 9.7 | 0.00 | 0.00 | 0.00 | 78 | 1017.5 |
| 20260905194118 | 22 | 244 | 1.6 | 3.2 | 0.00 | 0.00 | 0.00 | 80 | 1017.4 |
| 20260905193618 | 22 | 5 | 3.2 | 4.8 | 0.00 | 0.00 | 0.00 | 80 | 1017.5 |
| 20260905193118 | 22 | 36 | 3.2 | 6.4 | 0.00 | 0.00 | 0.00 | 80 | 1017.4 |
| 20260905192618 | 22 | 28 | 3.2 | 6.4 | 0.00 | 0.00 | 0.00 | 81 | 1017.5 |
| 20260905192118 | 22 | 5 | 3.2 | 6.4 | 0.00 | 0.00 | 0.00 | 80 | 1017.5 |
| 20260905191618 | 22 | 346 | 3.2 | 8.0 | 0.00 | 0.00 | 0.00 | 80 | 1017.5 |
| 20260905191118 | 22 | 130 | 3.2 | 4.8 | 0.00 | 0.00 | 0.00 | 82 | 1017.5 |
| 20260905190618 | 22 | 288 | 4.8 | 8.0 | 0.00 | 0.00 | 0.00 | 82 | 1017.4 |
| 20260905190118 | 22 | 35 | 4.8 | 9.7 | 0.00 | 0.00 | 0.00 | 82 | 1017.4 |
| 20260905185618 | 21 | 15 | 3.2 | 9.7 | 0.00 | 0.00 | 0.00 | 83 | 1017.4 |
| 20260905185118 | 21 | 288 | 3.2 | 8.0 | 0.00 | 0.00 | 0.00 | 83 | 1017.4 |
| 20260905184618 | 21 | 161 | 3.2 | 6.4 | 0.00 | 0.00 | 0.00 | 83 | 1017.5 |
| 20260905184118 | 21 | 65 | 3.2 | 6.4 | 0.00 | 0.00 | 0.00 | 83 | 1017.6 |
| 20260905183618 | 21 | 304 | 1.6 | 4.8 | 0.00 | 0.00 | 0.00 | 84 | 1017.6 |
| 20260905183118 | 21 | 9 | 1.6 | 6.4 | 0.00 | 0.00 | 0.00 | 84 | 1017.8 |
| 20260905182618 | 21 | 12 | 1.6 | 0.0 | 0.00 | 0.00 | 0.00 | 85 | 1017.8 |
| 20260905182118 | 21 | 9 | 3.2 | 6.4 | 0.00 | 0.00 | 0.00 | 85 | 1017.9 |
| 20260905181618 | 21 | 338 | 3.2 | 6.4 | 0.00 | 0.00 | 0.00 | 85 | 1018.0 |
| 20260905181118 | 21 | 19 | 3.2 | 6.4 | 0.00 | 0.00 | 0.00 | 86 | 1017.9 |
| 20260905180618 | 21 | 57 | 4.8 | 8.0 | 0.00 | 0.00 | 0.00 | 86 | 1017.9 |
| 20260905180118 | 21 | 43 | 4.8 | 8.0 | 0.00 | 0.00 | 0.00 | 86 | 1017.9 |
| 20260905175618 | 20 | 35 | 4.8 | 8.0 | 0.00 | 0.00 | 0.00 | 87 | 1017.8 |
| 20260905175118 | 20 | 47 | 4.8 | 9.7 | 0.00 | 0.00 | 0.00 | 87 | 1018.0 |
| 20260905174618 | 20 | 57 | 3.2 | 9.7 | 0.00 | 0.00 | 0.00 | 87 | 1018.1 |
| 20260905174118 | 20 | 46 | 3.2 | 4.8 | 0.00 | 0.00 | 0.00 | 87 | 1018.1 |
| 20260905173618 | 20 | 14 | 4.8 | 6.4 | 0.00 | 0.00 | 0.00 | 88 | 1018.1 |
| 20260905173118 | 20 | 335 | 3.2 | 6.4 | 0.00 | 0.00 | 0.00 | 88 | 1018.2 |
| 20260905172618 | 20 | 25 | 3.2 | 4.8 | 0.00 | 0.00 | 0.00 | 88 | 1018.2 |
| 20260905172118 | 20 | 355 | 3.2 | 4.8 | 0.00 | 0.00 | 0.00 | 88 | 1018.1 |
| 20260905171618 | 20 | 73 | 4.8 | 6.4 | 0.00 | 0.00 | 0.00 | 88 | 1018.1 |
| 20260905171118 | 20 | 46 | 3.2 | 8.0 | 0.00 | 0.00 | 0.00 | 88 | 1018.0 |
| 20260905170618 | 20 | 22 | 1.6 | 8.0 | 0.00 | 0.00 | 0.00 | 88 | 1018.0 |
| 20260905170118 | 20 | 54 | 1.6 | 6.4 | 0.00 | 0.00 | 0.00 | 88 | 1018.0 |
| 20260905165618 | 20 | 57 | 0.0 | 3.2 | 0.00 | 0.00 | 0.00 | 89 | 1018.1 |
| 20260905165119 | 20 | 100 | 1.6 | 0.0 | 0.00 | 0.00 | 0.00 | 89 | 1018.3 |
| 20260905164619 | 20 | 102 | 3.2 | 3.2 | 0.00 | 0.00 | 0.00 | 89 | 1018.3 |
| 20260905164119 | 20 | 153 | 3.2 | 9.7 | 0.00 | 0.00 | 0.00 | 89 | 1018.4 |
| 20260905163619 | 20 | 174 | 3.2 | 6.4 | 0.00 | 0.00 | 0.00 | 90 | 1018.3 |
| 20260905163118 | 20 | 138 | 3.2 | 6.4 | 0.00 | 0.00 | 0.00 | 89 | 1018.1 |